Wind_Speed
4 3 4 3 3 4 1 3 6 9 10 9 10 10 10 11 11 12 13 13 13 14 15 15 14 14 14 13 13 13 12 12 11 11 11 11 11 11 11 11 11 11 11 11 10 9 9 9 9
4 4 4 3 3 2 3 6 8 10 12 11 12 11 11 12 13 14 14 14 15 15 15 15 15 15 14 13 13 13 13 12 12 12 12 12 13 12 12 12 12 12 12 11 11 11 10 10 10
5 5 4 3 3 2 5 9 9 12 12 12 11 12 12 12 13 14 14 15 16 16 16 16 16 15 15 15 14 14 13 13 13 13 13 13 13 13 13 13 13 13 13 12 12 11 11 11 10
6 5 3 3 2 4 8 10 10 11 12 13 13 12 13 13 14 14 15 16 16 17 17 16 15 15 16 15 14 14 14 14 14 14 13 14 14 14 14 14 14 14 13 14 13 13 12 12 12
7 6 3 1 3 7 10 9 10 12 13 12 12 12 13 14 15 15 16 17 16 17 17 16 16 16 15 15 15 15 14 14 14 14 15 15 15 15 15 15 15 15 14 14 14 14 14 13 13
8 6 2 2 7 10 9 9 10 12 13 13 12 13 14 15 15 16 17 17 17 17 15 15 16 16 15 15 15 15 15 15 14 14 15 15 16 16 16 16 16 16 16 15 15 15 15 15 14
8 6 4 6 9 10 10 10 11 12 12 13 13 14 15 15 16 17 17 17 18 18 17 15 15 16 15 15 16 16 15 15 15 16 16 16 16 17 17 17 17 16 16 16 16 16 16 16 15
7 7 6 6 8 11 12 12 13 13 13 14 15 16 15 15 16 17 17 17 18 18 17 16 16 16 16 16 16 16 16 15 15 16 16 16 17 17 18 17 18 18 17 17 17 17 17 17 16
8 6 4 6 8 11 11 12 14 14 14 15 16 16 16 16 16 17 17 17 18 18 16 17 17 16 16 17 17 17 17 16 16 16 16 16 17 18 18 17 18 18 18 18 18 18 18 18 17
7 5 6 9 9 11 11 12 13 14 13 14 15 15 15 16 16 17 17 17 18 17 17 17 18 17 17 17 17 17 17 17 17 17 17 17 17 18 18 18 18 18 19 19 19 19 19 19 19
8 7 7 8 9 11 11 12 14 14 14 13 15 15 15 15 16 16 17 17 18 17 18 18 18 18 18 17 18 18 17 17 17 18 17 17 18 18 19 19 19 19 20 20 20 20 20 20 19
9 9 7 9 11 11 11 12 15 15 15 15 17 17 17 16 16 16 16 16 17 17 17 19 18 18 19 19 18 17 17 18 18 18 19 19 19 19 20 20 20 20 20 21 21 21 21 21 21
10 8 8 10 11 10 11 13 14 15 15 16 18 18 17 16 17 16 17 17 16 16 18 19 18 18 18 19 19 18 19 19 19 19 19 19 20 20 20 20 20 20 21 22 22 22 22 23 23
8 9 9 10 10 11 13 14 15 15 15 17 18 18 18 17 17 16 17 18 18 18 19 20 19 18 18 19 18 18 18 18 18 18 19 19 20 20 20 20 21 21 21 22 23 23 24 24 24
7 7 8 8 11 12 14 14 14 15 15 16 17 17 18 18 18 18 18 18 18 18 19 19 20 19 18 18 18 17 18 18 19 18 19 20 20 19 19 20 21 21 22 22 23 24 25 24 25
5 6 9 10 13 13 14 15 14 14 16 17 17 17 18 18 19 19 19 18 19 19 19 20 20 19 18 18 18 18 18 18 18 18 19 19 20 20 20 20 21 22 23 23 24 24 25 25 25
6 8 10 13 14 13 14 15 16 15 16 17 16 17 18 19 19 19 18 19 19 19 20 20 20 19 19 18 18 18 18 18 19 19 19 20 22 22 22 22 22 23 23 23 24 25 25 25 25
9 9 11 13 14 14 15 15 15 15 16 16 16 17 18 18 19 19 18 19 19 19 20 19 19 19 18 18 18 19 19 19 20 19 20 21 22 23 22 23 23 24 23 23 23 24 24 24 24
10 9 10 12 12 13 14 15 15 15 16 17 16 16 17 18 18 18 19 19 20 20 20 19 19 18 18 18 18 19 20 19 19 19 20 21 22 22 22 22 22 23 23 23 23 23 23 24 24
9 9 12 13 11 12 13 14 14 15 16 17 17 17 19 20 19 19 19 20 19 20 19 19 18 18 19 19 19 19 19 19 19 20 20 21 22 22 22 21 22 22 22 22 22 23 23 23 23
9 10 12 13 10 11 14 15 15 14 16 17 17 18 20 20 20 19 19 19 19 19 19 19 19 18 19 19 19 19 19 20 20 20 21 21 22 21 22 22 22 23 23 23 24 24 24 24 24
9 10 12 11 11 11 13 14 16 15 15 17 18 19 19 19 20 19 19 19 19 19 18 19 19 19 19 19 19 19 20 20 20 21 21 22 22 23 23 23 23 24 24 25 25 24 24 25 25
10 11 12 11 11 11 11 13 15 16 16 19 19 18 19 20 20 20 19 19 19 18 18 19 19 19 19 19 19 20 20 21 21 21 22 22 23 23 23 22 23 24 24 24 24 24 25 25 25
11 11 11 10 11 11 11 13 16 15 17 19 20 20 19 19 19 19 19 19 18 18 19 20 19 19 19 19 20 20 20 21 21 21 22 22 22 22 23 23 23 23 23 23 23 24 25 26 25
10 10 9 9 11 12 12 13 15 15 18 19 21 21 21 20 19 19 19 18 18 19 19 20 20 19 19 19 19 20 21 21 22 22 22 23 22 23 23 23 23 23 23 24 24 24 24 24 25
11 10 11 11 10 10 12 14 15 16 19 20 21 21 21 20 19 20 19 19 19 19 20 21 20 19 19 19 20 20 21 21 22 22 22 22 22 24 24 24 23 23 24 24 24 24 24 24 25
11 11 11 12 10 10 11 16 18 18 19 21 21 21 21 20 20 20 20 20 19 19 20 20 20 20 19 19 20 21 21 21 21 21 21 22 23 23 23 23 23 23 23 23 24 24 24 25 25
10 11 10 10 9 9 12 16 19 20 21 21 20 20 20 20 19 19 19 20 19 19 19 20 21 21 21 20 21 21 22 21 21 21 22 22 22 22 21 22 22 22 22 22 22 23 24 24 24
11 11 11 11 11 11 12 16 18 21 22 21 20 20 20 19 19 19 20 20 20 20 20 20 21 22 22 21 21 21 21 21 21 22 22 22 22 21 21 21 21 21 21 22 22 22 22 23 23
12 12 11 11 12 13 15 18 19 21 22 21 21 20 20 19 18 19 20 20 20 20 20 21 21 21 22 22 22 21 21 21 22 22 21 21 20 20 21 21 21 20 21 21 21 21 21 20 21
Wind_Direction
201 177 160 142 143 106 169 249 270 283 284 282 281 284 287 286 289 294 298 305 304 302 301 298 296 294 292 290 289 284 279 275 271 267 264 260 258 256 251 249 244 243 242 240 240 240 242 245 248
190 173 161 153 102 107 278 270 272 286 282 284 287 289 289 289 292 295 299 304 303 299 299 297 294 290 289 290 288 284 281 275 271 269 267 264 259 257 256 253 250 247 245 244 243 242 243 244 247
182 176 171 151 127 215 260 273 283 285 286 290 291 290 294 296 295 300 302 303 302 300 300 298 295 289 285 286 287 283 281 278 273 270 269 268 266 261 257 255 252 251 246 245 247 244 242 242 244
176 175 162 122 161 246 255 267 278 283 290 293 290 289 293 300 301 303 302 301 302 301 298 297 293 291 288 286 285 284 283 278 273 269 268 268 268 265 259 255 253 252 249 245 247 245 245 244 245
180 183 145 311 259 255 256 272 285 292 296 299 294 289 293 299 300 301 301 301 304 301 296 293 293 291 288 287 287 283 281 277 276 272 270 268 267 265 262 259 256 253 251 247 246 246 245 248 249
192 181 152 271 261 265 271 281 284 288 297 297 299 298 298 300 301 300 300 301 302 299 301 296 292 289 288 287 289 284 280 275 275 276 273 269 268 266 265 263 260 256 252 248 246 245 247 250 252
189 172 182 236 254 263 279 290 289 289 293 296 302 302 302 302 302 304 305 305 303 301 301 297 292 289 288 288 289 288 283 278 277 277 275 270 267 267 265 263 260 258 255 251 249 247 247 250 251
180 185 187 232 253 268 281 289 290 294 296 298 299 299 303 306 307 308 306 305 303 300 301 297 293 292 290 288 288 288 284 280 280 278 274 271 269 269 267 267 262 257 256 254 252 252 251 250 251
178 182 184 232 250 265 277 288 293 298 301 304 301 299 303 305 306 306 306 308 306 304 304 300 297 299 293 289 287 288 285 283 283 280 275 273 272 270 268 268 263 258 256 254 253 252 252 251 251
197 201 223 239 250 264 280 289 294 296 300 303 304 303 304 308 308 309 310 310 310 307 305 302 299 295 292 290 288 288 284 282 280 280 275 273 272 270 268 269 267 261 258 257 256 255 254 253 253
206 220 230 246 266 266 277 287 295 296 303 301 305 306 302 304 306 308 312 314 312 309 305 304 302 298 292 290 290 286 280 281 280 280 280 277 274 272 271 271 271 267 264 261 258 256 255 255 256
234 242 249 265 269 274 284 293 298 298 303 302 303 303 306 304 305 308 310 313 311 307 306 309 304 300 295 292 292 286 282 283 283 283 282 280 278 275 272 272 273 270 266 262 259 258 258 258 257
242 255 256 270 276 287 292 302 303 306 305 305 304 305 309 312 311 310 311 310 311 310 309 308 306 301 296 295 294 289 285 284 283 284 285 283 283 279 276 276 276 273 268 265 263 261 260 259 259
244 261 267 280 289 298 297 302 304 308 311 306 306 310 310 313 317 316 315 316 316 313 311 310 307 303 297 294 292 290 290 289 286 285 285 284 285 284 282 279 277 274 271 271 268 265 262 261 259
251 270 272 281 288 296 301 301 302 309 316 312 310 312 315 315 315 318 318 318 317 313 312 312 311 308 303 295 292 288 292 291 287 283 284 286 288 287 285 283 280 278 276 275 272 268 265 263 261
268 283 285 285 288 295 302 301 304 313 313 315 315 314 314 315 314 315 314 316 316 314 314 314 313 312 308 300 295 296 296 294 291 286 286 288 289 289 288 286 282 280 277 275 274 272 268 266 264
273 274 276 279 285 289 296 302 307 312 313 314 316 315 312 314 314 314 314 314 316 314 313 312 311 311 309 304 300 299 298 295 294 290 288 290 290 288 286 284 283 283 280 276 274 274 272 268 266
252 254 256 267 280 287 296 304 309 315 314 316 318 319 315 312 313 313 314 315 314 313 313 312 312 311 311 308 303 300 298 297 295 293 288 290 291 290 287 285 284 284 281 277 276 277 274 270 267
245 253 259 265 275 286 295 299 307 312 314 316 319 322 321 317 316 317 318 318 316 314 315 313 314 314 313 309 307 301 300 301 300 298 294 293 294 293 293 290 287 286 282 280 279 278 276 273 268
251 263 266 265 272 282 295 296 303 311 316 318 322 324 324 324 327 325 322 321 321 319 317 317 316 315 313 310 309 305 302 301 301 300 297 295 294 294 293 291 290 289 285 282 282 281 278 275 271
263 263 261 262 271 288 296 303 306 311 313 315 321 325 327 327 326 325 324 323 323 321 321 322 320 317 313 309 307 307 303 302 302 302 299 297 296 294 291 290 290 289 285 283 283 281 278 275 271
263 260 266 277 287 287 291 295 302 304 309 315 321 325 326 325 325 325 324 324 325 325 323 324 323 319 315 312 309 307 305 303 301 302 302 300 296 294 292 291 290 289 286 285 283 280 278 276 272
264 264 270 276 288 287 290 292 297 303 309 314 318 322 322 324 325 326 325 324 324 324 324 325 324 321 318 315 312 307 304 304 301 301 301 301 299 296 294 292 292 291 289 286 283 280 277 275 272
273 273 272 277 285 280 281 288 289 299 306 311 315 318 319 321 323 326 325 324 324 325 325 326 325 321 318 316 313 308 306 306 304 303 303 303 302 300 298 296 294 292 290 288 286 282 278 274 270
273 270 277 277 277 276 277 281 283 299 304 308 310 313 316 317 320 325 325 326 325 324 325 325 322 320 319 317 314 312 310 309 308 307 306 305 303 302 300 297 296 293 292 289 286 282 279 275 270
271 268 272 275 273 280 280 282 293 301 305 307 309 312 314 318 322 325 325 325 324 325 325 326 326 324 323 321 318 317 314 312 311 310 309 308 307 305 302 300 297 294 292 289 287 283 279 275 272
266 262 266 269 272 280 280 285 293 298 307 307 310 314 316 317 322 324 324 324 324 325 326 327 327 326 325 324 322 320 319 316 313 312 311 309 308 307 304 302 299 297 294 290 288 284 280 276 274
271 269 267 270 271 276 281 286 293 298 301 304 308 313 316 318 321 322 323 324 325 325 325 325 325 324 323 323 323 322 320 317 313 311 311 311 309 308 306 304 302 300 298 296 294 289 284 279 277
277 270 270 269 265 267 275 280 288 293 300 304 309 311 314 318 319 320 322 325 325 324 324 325 324 324 325 323 321 321 320 319 317 314 311 310 311 310 307 305 305 304 304 301 298 294 287 283 279
276 273 273 272 271 270 276 284 290 294 297 303 307 307 310 316 318 320 322 325 325 324 324 324 325 326 326 325 323 322 321 320 320 318 315 314 313 311 311 310 309 308 308 307 304 299 293 287 282
Height
5879 5880 5881 5882 5883 5883 5884 5885 5884 5883 5882 5881 5881 5880 5879 5878 5879 5879 5876 5874 5874 5872 5871 5870 5869 5869 5868 5867 5866 5866 5866 5865 5865 5864 5864 5865 5865 5865 5865 5865 5865 5866 5866 5867 5867 5868 5868 5869 5870
5879 5880 5881 5882 5882 5883 5884 5884 5883 5882 5880 5880 5879 5878 5877 5876 5876 5875 5873 5872 5872 5870 5869 5868 5867 5866 5865 5865 5864 5864 5863 5863 5863 5862 5862 5862 5862 5863 5863 5863 5863 5864 5864 5864 5865 5866 5866 5867 5868
5878 5879 5881 5881 5882 5883 5883 5883 5881 5880 5879 5878 5878 5876 5875 5875 5874 5872 5871 5870 5869 5868 5867 5865 5864 5864 5863 5862 5862 5861 5861 5860 5860 5860 5860 5860 5860 5860 5860 5861 5861 5861 5862 5862 5863 5863 5864 5865 5866
5877 5879 5880 5882 5882 5883 5882 5881 5880 5879 5878 5876 5876 5874 5873 5872 5871 5870 5869 5867 5866 5865 5864 5863 5861 5861 5860 5859 5859 5858 5858 5858 5858 5858 5857 5858 5858 5858 5858 5858 5858 5859 5859 5859 5860 5861 5861 5862 5863
5876 5878 5879 5881 5881 5882 5881 5880 5878 5877 5876 5873 5872 5872 5871 5870 5869 5868 5866 5865 5863 5862 5859 5859 5858 5857 5857 5856 5855 5855 5855 5855 5854 5855 5855 5855 5855 5855 5855 5855 5856 5856 5856 5856 5857 5858 5858 5859 5859
5876 5876 5879 5881 5882 5881 5879 5877 5877 5876 5874 5872 5871 5870 5869 5868 5866 5865 5864 5862 5860 5858 5854 5854 5854 5854 5853 5853 5852 5851 5851 5851 5851 5851 5852 5851 5851 5852 5852 5852 5852 5853 5853 5853 5854 5854 5855 5856 5856
5875 5876 5879 5881 5881 5879 5877 5876 5875 5874 5872 5870 5869 5868 5867 5865 5864 5862 5861 5859 5857 5854 5852 5852 5851 5850 5850 5849 5849 5848 5848 5848 5848 5848 5848 5848 5848 5848 5848 5848 5849 5849 5850 5850 5851 5851 5852 5853 5853
5873 5875 5877 5880 5879 5878 5876 5874 5873 5872 5870 5870 5868 5866 5865 5862 5861 5860 5858 5856 5853 5850 5849 5849 5848 5846 5846 5846 5846 5845 5845 5845 5845 5844 5844 5844 5844 5845 5844 5845 5845 5845 5846 5847 5847 5848 5849 5849 5850
5872 5874 5875 5878 5877 5876 5875 5873 5871 5870 5869 5867 5865 5863 5862 5859 5858 5857 5855 5853 5851 5847 5846 5845 5844 5842 5842 5842 5842 5842 5841 5841 5841 5841 5841 5841 5841 5841 5841 5841 5841 5841 5842 5843 5843 5844 5845 5846 5846
5871 5873 5874 5875 5874 5874 5873 5872 5869 5869 5866 5865 5863 5861 5859 5857 5856 5854 5852 5850 5848 5844 5843 5842 5841 5839 5838 5839 5838 5838 5837 5838 5838 5838 5837 5837 5837 5837 5837 5837 5837 5837 5838 5839 5839 5840 5841 5842 5843
5870 5871 5872 5872 5871 5872 5870 5869 5867 5866 5864 5863 5861 5859 5857 5855 5853 5851 5849 5847 5845 5843 5841 5840 5838 5836 5836 5835 5834 5833 5833 5833 5834 5834 5834 5833 5833 5833 5833 5833 5833 5834 5834 5835 5836 5836 5837 5838 5839
5869 5869 5869 5870 5870 5870 5869 5867 5865 5864 5863 5861 5859 5857 5854 5853 5851 5849 5846 5844 5842 5840 5839 5837 5835 5833 5832 5831 5830 5829 5829 5829 5829 5830 5830 5829 5829 5829 5829 5830 5830 5830 5830 5831 5831 5832 5833 5834 5834
5867 5868 5868 5869 5868 5868 5867 5865 5864 5862 5861 5858 5856 5854 5852 5850 5848 5846 5843 5841 5840 5837 5836 5834 5832 5830 5829 5828 5826 5826 5825 5826 5826 5826 5826 5825 5825 5825 5825 5825 5825 5826 5826 5826 5827 5827 5828 5829 5830
5865 5866 5867 5867 5866 5866 5865 5864 5863 5861 5859 5856 5854 5852 5850 5848 5845 5843 5841 5839 5838 5835 5833 5831 5829 5828 5826 5825 5823 5823 5822 5822 5822 5822 5821 5821 5821 5821 5820 5820 5820 5821 5821 5821 5821 5822 5823 5823 5824
5863 5864 5865 5865 5865 5865 5864 5862 5861 5858 5857 5854 5852 5850 5848 5846 5843 5841 5839 5837 5835 5833 5831 5829 5827 5825 5823 5821 5820 5819 5819 5818 5818 5818 5817 5817 5817 5817 5816 5816 5816 5816 5815 5815 5816 5816 5817 5817 5818
5861 5862 5863 5864 5863 5863 5863 5860 5858 5856 5855 5852 5850 5848 5846 5843 5841 5839 5837 5835 5832 5830 5828 5826 5824 5822 5820 5818 5817 5816 5816 5815 5814 5814 5814 5813 5813 5812 5811 5811 5810 5810 5810 5810 5810 5810 5810 5811 5812
5860 5862 5863 5863 5861 5861 5860 5858 5856 5854 5852 5850 5848 5846 5843 5841 5838 5836 5834 5832 5830 5828 5825 5823 5821 5819 5817 5815 5814 5813 5813 5812 5810 5810 5809 5809 5808 5807 5806 5806 5805 5805 5804 5804 5804 5804 5804 5805 5805
5860 5861 5862 5861 5859 5859 5858 5856 5854 5852 5850 5848 5846 5843 5841 5839 5836 5834 5831 5829 5827 5825 5822 5820 5818 5816 5814 5812 5811 5810 5809 5808 5807 5806 5805 5804 5803 5802 5801 5801 5800 5799 5799 5799 5798 5798 5798 5798 5799
5857 5858 5859 5859 5858 5857 5856 5855 5852 5850 5848 5846 5844 5841 5839 5836 5833 5831 5828 5826 5824 5822 5819 5817 5815 5813 5811 5809 5808 5806 5805 5804 5803 5801 5800 5799 5798 5797 5796 5795 5794 5794 5793 5793 5793 5792 5792 5792 5792
5855 5856 5856 5856 5855 5855 5854 5852 5851 5849 5847 5844 5842 5839 5837 5834 5831 5829 5826 5823 5821 5819 5816 5814 5812 5810 5808 5806 5804 5802 5801 5800 5798 5797 5796 5794 5793 5792 5791 5790 5789 5788 5788 5787 5787 5786 5785 5785 5786
5853 5854 5854 5853 5852 5853 5852 5850 5848 5847 5844 5842 5840 5838 5835 5832 5829 5827 5824 5821 5818 5816 5813 5811 5808 5806 5804 5802 5800 5798 5797 5796 5794 5793 5791 5790 5788 5787 5786 5785 5784 5783 5782 5781 5780 5779 5779 5779 5779
5851 5852 5852 5851 5850 5850 5850 5848 5846 5843 5841 5840 5838 5836 5833 5830 5827 5824 5821 5818 5816 5813 5810 5807 5805 5802 5800 5797 5796 5794 5792 5791 5790 5788 5787 5785 5783 5782 5780 5779 5778 5777 5775 5774 5773 5773 5772 5772 5772
5849 5849 5849 5849 5849 5849 5847 5846 5845 5842 5840 5839 5836 5833 5830 5828 5825 5822 5819 5816 5813 5810 5808 5805 5802 5799 5796 5794 5792 5790 5788 5787 5785 5783 5782 5780 5778 5776 5775 5773 5772 5771 5769 5768 5767 5766 5765 5764 5765
5847 5847 5847 5846 5847 5846 5846 5845 5843 5841 5839 5837 5834 5831 5828 5826 5823 5820 5817 5813 5810 5808 5805 5802 5799 5796 5793 5790 5788 5786 5784 5782 5780 5778 5776 5775 5773 5771 5769 5768 5766 5764 5763 5761 5760 5759 5758 5757 5757
5845 5845 5845 5845 5845 5844 5843 5842 5841 5838 5837 5835 5832 5829 5826 5823 5820 5818 5815 5811 5808 5805 5802 5799 5796 5793 5790 5787 5784 5782 5779 5777 5775 5773 5771 5769 5767 5765 5764 5762 5760 5758 5756 5755 5753 5752 5751 5750 5750
5842 5843 5843 5843 5843 5842 5840 5839 5838 5836 5835 5833 5830 5827 5824 5821 5817 5815 5812 5809 5806 5803 5800 5796 5793 5790 5786 5784 5781 5778 5776 5773 5771 5769 5767 5764 5762 5760 5758 5756 5754 5752 5750 5748 5746 5744 5744 5743 5742
5840 5840 5841 5841 5840 5840 5839 5837 5836 5834 5832 5830 5827 5824 5821 5818 5815 5813 5809 5806 5803 5800 5797 5794 5790 5787 5784 5781 5778 5775 5772 5769 5766 5764 5762 5759 5757 5755 5752 5750 5748 5745 5743 5741 5739 5738 5737 5736 5735
5838 5838 5838 5837 5837 5838 5837 5836 5834 5831 5830 5828 5825 5822 5818 5815 5813 5810 5807 5804 5801 5798 5795 5792 5788 5785 5781 5778 5775 5772 5768 5765 5763 5760 5758 5755 5752 5749 5747 5744 5742 5739 5737 5735 5733 5731 5729 5728 5728
5836 5836 5835 5834 5834 5835 5834 5834 5830 5828 5826 5824 5822 5819 5816 5813 5810 5807 5804 5801 5798 5795 5792 5789 5786 5782 5779 5775 5772 5768 5765 5762 5759 5756 5754 5751 5748 5745 5742 5740 5737 5735 5732 5729 5727 5725 5723 5721 5721
5833 5832 5832 5832 5832 5831 5831 5831 5827 5825 5823 5821 5818 5816 5813 5811 5808 5805 5802 5799 5795 5792 5789 5786 5783 5779 5776 5772 5768 5764 5761 5758 5755 5752 5749 5746 5743 5741 5738 5735 5733 5730 5727 5724 5722 5719 5717 5715 5714